This is the latest recevied weather packets stored in our database for station/object K7LDN-13. If no packets are shown the sender has not sent any weather packets the latest 10 day(s).
| Time | Temp. | Humidity | Pressure | Rain* | Wind** | Luminosity | Snow |
|---|---|---|---|---|---|---|---|
| 1777518356 | 11.11° C | 41% | 1021.9 hPa | 0 mm | - | 0 W/m² | - |
| 1777518052 | 11.67° C | 41% | 1021.7 hPa | 0 mm | - | 0 W/m² | - |
| 1777517748 | 11.67° C | 40% | 1021.9 hPa | 0 mm | - | 0 W/m² | - |
| 1777517444 | 11.67° C | 39% | 1021.7 hPa | 0 mm | - | 0 W/m² | - |
| 1777517143 | 12.22° C | 38% | 1021.6 hPa | 0 mm | - | 0 W/m² | - |
| 1777516841 | 12.22° C | 38% | 1021.4 hPa | 0 mm | - | 0 W/m² | - |
| 1777516537 | 12.22° C | 37% | 1021.4 hPa | 0 mm | - | 1 W/m² | - |
| 1777516233 | 12.22° C | 37% | 1021.3 hPa | 0 mm | - | 1 W/m² | - |
| 1777515930 | 12.22° C | 37% | 1021.4 hPa | 0 mm | - | 3 W/m² | - |
| 1777515627 | 12.78° C | 36% | 1021.4 hPa | 0 mm | - | 5 W/m² | - |
| 1777515324 | 12.78° C | 35% | 1021.4 hPa | 0 mm | - | 8 W/m² | - |
| 1777515019 | 12.78° C | 35% | 1021.2 hPa | 0 mm | - | 11 W/m² | - |
| 1777514716 | 12.78° C | 35% | 1021.3 hPa | 0 mm | - | 14 W/m² | - |
| 1777514414 | 13.33° C | 35% | 1021.3 hPa | 0 mm | - | 18 W/m² | - |
| 1777514109 | 13.89° C | 35% | 1021.1 hPa | 0 mm | - | 25 W/m² | - |
| 1777513807 | 13.89° C | 35% | 1021.3 hPa | 0 mm | - | 30 W/m² | - |
| 1777513504 | 13.89° C | 35% | 1021.1 hPa | 0 mm | - | 37 W/m² | - |
| 1777513201 | 13.89° C | 35% | 1021.1 hPa | 0 mm | - | 43 W/m² | - |
| 1777512896 | 13.89° C | 35% | 1021.2 hPa | 0 mm | - | 44 W/m² | - |
| 1777512593 | 13.89° C | 35% | 1021.3 hPa | 0 mm | - | 48 W/m² | - |
| 1777512290 | 13.89° C | 35% | 1021.2 hPa | 0 mm | - | 63 W/m² | - |
| 1777511987 | 13.89° C | 35% | 1021.2 hPa | 0 mm | - | 54 W/m² | - |
| 1777511685 | 13.89° C | 34% | 1021.4 hPa | 0 mm | - | 62 W/m² | - |
| 1777511382 | 13.89° C | 34% | 1021.3 hPa | 0 mm | - | 56 W/m² | - |
| 1777511077 | 14.44° C | 33% | 1021.2 hPa | 0 mm | - | 70 W/m² | - |
* Rain latest hour (hover to see other rain measurements)
** Current wind speed in m/s (hover to see current wind gust speed)